sat.trackr.live / text

‹ back to catalog

STARLINK-30257

NORAD 57526 · 2023-115F

PAYLOAD ACTIVE UNKNOWN

§ Identity

Operator
Country
US
Launch date
2023-08-08
Launch site
AFWTR
Launch vehicle
Mass (kg)
RCS (m²)

Purposes: comms

External: N2YO · Heavens-Above · Gunter

§ Orbital elements

Epoch: 2026-05-24T18:09:13.109472Z

Period
94.27 min
Inclination
43.0025°
Eccentricity
0.0001521
Mean motion
15.27578551 rev/d
Perigee alt
482.0 km
Apogee alt
484.1 km
Semi-major
6,861.2 km
B*
2.9573e-6
RAAN
292.1305°
Arg perigee
264.4675°
Mean anomaly
95.6003°
Rev number
15,398

§ Raw data

STARLINK-302571 57526U 23115F   26144.75640173 -.00000181  00000+0  29573-5 0  99982 57526  43.0025 292.1305 0001521 264.4675  95.6003 15.27578551153981

JSON: /api/v1/satellites/57526 · /tle

For live sub-satellite position, see the globe view (requires WebGL).

§ Visibility from observer

Set your observer location to see the next 7 days of passes ≥ 10°. The values pass through the URL so the page stays shareable.

No JS? Fill the form by hand. The geolocation button needs JavaScript.